Home   Weather   Paradise   Past weeks

Flag for USA Past Weather in Paradise, Nevada, USA — Yesterday and Last 2 Weeks

Now
58 °F

Clear.


Feels Like: 54 °F
Forecast: 55 / 77 °F
Wind: 17 mph from North

Location: McCarran International Airport

Current Time: Apr 29, 2017 at 2:36:50 am

Latest Report: Apr 29, 2017 at 1:56 am


Visibility: 10 mi

Pressure: 29.96 "Hg (27.76 "Hg at 643m altitude)

Humidity: 20%

Dew Point: 17 °F

Location of ParadiseLocation

Past Weather in Paradise — Graph

°F

Paradise Temperature Yesterday

Maximum temperature yesterday: 72 °F (at 2:56 pm)
Minimum temperature yesterday: 60 °F (at 5:56 am)
Average temperature yesterday: 65 °F

High & Low Weather Summary for the Past Weeks

 TemperatureHumidityPressure
High89 °F (Apr 23, 1:56 pm)48% (Apr 19, 4:56 am)30.13 "Hg (Apr 19, 4:56 am)
Low55 °F (Apr 14, 5:56 am)4% (Apr 16, 3:56 pm)29.51 "Hg (Apr 24, 6:56 pm)
Average73 °F16%29.80 "Hg
* Reported Apr 13 11:56 pm — Apr 28 11:56 pm, Paradise, Weather by CustomWeather, © 2017

Note: Actual official high and low records may vary slightly from our data, if they occured in-between our weather recording intervals... More about our weather records

Advertising

Paradise Weather History for the Previous 24 Hours

Scroll right to see more
 ConditionsComfort  
Time TempWeatherWind HumidityBarometerVisibility
11:56 pm
Fri, Apr 28
63 °FClear.17 mph15%29.94 "Hg10 mi
10:56 pm61 °FClear.16 mph14%29.92 "Hg10 mi
9:56 pm62 °FPassing clouds.20 mph14%29.91 "Hg10 mi
8:56 pm62 °FPassing clouds.15 mph17%29.88 "Hg10 mi
7:56 pm64 °FPassing clouds.20 mph11%29.84 "Hg10 mi
6:56 pm67 °FPassing clouds.23 mph7%29.80 "Hg10 mi
5:56 pm69 °FPassing clouds.14 mph5%29.78 "Hg10 mi
4:56 pm70 °FPassing clouds.22 mph7%29.77 "Hg10 mi
3:56 pm70 °FPassing clouds.25 mph7%29.78 "Hg10 mi
2:56 pm72 °FPassing clouds.24 mph5%29.78 "Hg10 mi
1:56 pm71 °FPassing clouds.21 mph6%29.78 "Hg10 mi
12:56 pm68 °FPassing clouds.17 mph9%29.80 "Hg10 mi
11:56 am67 °FPassing clouds.24 mph10%29.80 "Hg10 mi
10:56 am65 °FPassing clouds.26 mph10%29.82 "Hg10 mi
9:56 am64 °FPassing clouds.31 mph10%29.81 "Hg10 mi
8:56 am63 °FPassing clouds.20 mph13%29.83 "Hg10 mi
7:56 am62 °FScattered clouds.22 mph14%29.82 "Hg10 mi
6:56 am60 °FScattered clouds.22 mph15%29.80 "Hg10 mi
5:56 am60 °FScattered clouds.18 mph15%29.77 "Hg10 mi
4:56 am61 °FPassing clouds.21 mph16%29.74 "Hg10 mi
3:56 am63 °FPassing clouds.21 mph14%29.71 "Hg10 mi
2:56 am65 °FPassing clouds.20 mph11%29.69 "Hg10 mi
Weather by CustomWeather, © 2017

See weather overviewHow to use our weather pages